QPF
0.00 0.00 0.00 0.00 0.00 0.00 0.00 0.00 0.00 0.00 0.00 0.00 0.00 0.00 0.00 0.00 0.00 0.00 0.00 0.00 0.00 0.00
0.00 0.00 0.00 0.00 0.00 0.00 0.00 0.00 0.00 0.00 0.00 0.00 0.00 0.01 0.00 0.00 0.00 0.00 0.00 0.00 0.00 0.00
0.00 0.00 0.00 0.00 0.00 0.00 0.00 0.00 0.00 0.00 0.01 0.00 0.00 0.00 0.00 0.00 0.00 0.00 0.00 0.00 0.00 0.00
0.00 0.00 0.00 0.00 0.00 0.00 0.00 0.00 0.00 0.00 0.02 0.05 0.01 0.00 0.00 0.00 0.00 0.00 0.00 0.00 0.00 0.00
0.00 0.00 0.00 0.00 0.00 0.00 0.00 0.00 0.00 0.00 0.00 0.00 0.00 0.00 0.02 0.02 0.02 0.00 0.01 0.04 0.01 0.00
0.00 0.00 0.00 0.00 0.00 0.00 0.00 0.00 0.00 0.00 0.00 0.00 0.00 0.00 0.01 0.00 0.00 0.00 0.00 0.04 0.02 0.00
0.00 0.00 0.00 0.00 0.00 0.00 0.00 0.00 0.00 0.00 0.00 0.00 0.00 0.00 0.00 0.00 0.00 0.00 0.00 0.00 0.00 0.00
0.00 0.00 0.00 0.00 0.00 0.00 0.00 0.00 0.00 0.00 0.00 0.00 0.00 0.00 0.00 0.00 0.00 0.00 0.00 0.00 0.00 0.02
0.00 0.00 0.00 0.00 0.00 0.00 0.00 0.00 0.00 0.00 0.00 0.00 0.00 0.00 0.00 0.00 0.00 0.01 0.02 0.05 0.11 0.11
0.00 0.00 0.00 0.00 0.00 0.00 0.00 0.00 0.00 0.00 0.00 0.01 0.02 0.00 0.04 0.12 0.21 0.22 0.25 0.16 0.09 0.02
0.00 0.00 0.00 0.00 0.00 0.00 0.00 0.00 0.00 0.00 0.03 0.14 0.17 0.30 0.38 0.35 0.29 0.24 0.24 0.14 0.06 0.02
0.00 0.00 0.00 0.00 0.00 0.00 0.00 0.00 0.00 0.00 0.06 0.25 0.27 0.26 0.16 0.11 0.08 0.10 0.10 0.06 0.04 0.02
0.00 0.00 0.00 0.00 0.00 0.00 0.00 0.00 0.01 0.10 0.16 0.24 0.13 0.10 0.11 0.03 0.00 0.02 0.06 0.05 0.03 0.02
0.00 0.00 0.00 0.00 0.00 0.00 0.04 0.06 0.06 0.08 0.03 0.05 0.06 0.10 0.08 0.01 0.00 0.00 0.01 0.01 0.01 0.00
MSLP
1014.15 1014.54 1014.95 1015.30 1015.64 1015.87 1016.01 1016.12 1016.20 1016.29 1016.39 1016.42 1016.49 1016.64 1016.95 1017.41 1017.48 1017.52 1017.65 1017.74 1017.79 1017.81
1013.80 1014.10 1014.44 1014.77 1015.09 1015.42 1015.56 1015.71 1015.96 1015.87 1016.13 1016.11 1016.22 1016.36 1016.76 1017.07 1017.23 1017.36 1017.48 1017.52 1017.56 1017.61
1013.23 1013.63 1013.97 1014.29 1014.67 1014.89 1015.08 1015.34 1015.58 1015.70 1015.90 1016.07 1016.17 1016.26 1016.47 1016.66 1016.85 1017.13 1017.23 1017.24 1017.33 1017.35
1012.68 1013.10 1013.49 1013.82 1014.12 1014.40 1014.63 1014.90 1015.17 1015.40 1015.64 1015.84 1015.85 1015.87 1016.08 1016.26 1016.49 1016.78 1016.88 1017.03 1017.11 1017.06
1012.15 1012.65 1013.01 1013.21 1013.54 1013.95 1014.26 1014.62 1014.85 1015.04 1015.20 1015.25 1015.32 1015.46 1015.86 1016.09 1016.26 1016.45 1016.69 1016.73 1016.98 1016.95
1011.63 1012.09 1012.37 1012.66 1013.10 1013.46 1013.90 1014.21 1014.47 1014.68 1014.83 1015.02 1015.16 1015.31 1015.43 1015.59 1015.77 1015.98 1016.11 1016.20 1016.46 1016.38
1011.00 1011.34 1011.69 1012.11 1012.49 1012.93 1013.34 1013.73 1014.04 1014.24 1014.44 1014.64 1014.79 1014.95 1015.09 1015.29 1015.43 1015.52 1015.56 1015.60 1015.78 1015.87
1010.18 1010.78 1011.29 1011.68 1011.96 1012.32 1012.73 1013.13 1013.51 1013.88 1014.11 1014.29 1014.52 1014.68 1014.89 1015.04 1015.11 1015.16 1015.15 1015.11 1015.14 1015.17
1009.76 1010.26 1010.69 1011.08 1011.45 1011.83 1012.17 1012.51 1012.93 1013.30 1013.57 1013.89 1014.20 1014.41 1014.65 1014.80 1014.87 1014.92 1014.86 1014.67 1014.63 1014.69
1009.16 1009.66 1010.09 1010.52 1010.95 1011.27 1011.60 1011.96 1012.34 1012.69 1013.00 1013.64 1014.22 1014.29 1014.59 1014.74 1015.19 1015.44 1015.35 1015.04 1014.76 1014.41
1008.44 1008.97 1009.53 1010.01 1010.33 1010.65 1010.99 1011.33 1011.65 1011.99 1012.54 1013.37 1013.85 1013.44 1013.56 1013.47 1014.00 1014.00 1014.66 1015.01 1015.21 1014.98
1007.75 1008.27 1008.83 1009.31 1009.66 1010.02 1010.50 1010.77 1011.02 1011.41 1012.19 1012.71 1013.11 1012.79 1012.17 1012.66 1013.46 1014.09 1014.18 1013.86 1014.97 1014.92
1007.23 1007.70 1008.14 1008.48 1008.89 1009.22 1009.64 1010.06 1010.59 1010.97 1011.35 1011.67 1012.21 1012.33 1012.07 1012.73 1013.05 1014.01 1014.47 1014.06 1014.96 1014.94
1006.69 1007.05 1007.38 1007.89 1008.31 1008.72 1009.19 1009.76 1010.36 1010.76 1011.08 1011.35 1011.76 1012.11 1012.27 1012.86 1013.49 1013.97 1014.56 1014.61 1014.47 1014.38
Thickness
5773 5772 5770 5767 5766 5766 5766 5767 5768 5767 5766 5767 5768 5768 5767 5766 5767 5768 5768 5768 5767 5768
5774 5773 5770 5769 5769 5768 5768 5769 5767 5767 5767 5767 5767 5768 5768 5767 5766 5766 5767 5767 5767 5766
5776 5774 5773 5772 5769 5769 5770 5768 5767 5766 5766 5766 5767 5768 5767 5766 5767 5764 5765 5766 5764 5764
5778 5776 5774 5772 5772 5771 5771 5769 5767 5767 5766 5765 5767 5768 5767 5766 5766 5763 5762 5762 5761 5761
5781 5778 5775 5774 5774 5773 5771 5770 5769 5768 5768 5768 5768 5768 5765 5763 5763 5760 5757 5756 5754 5754
5783 5780 5779 5778 5777 5775 5772 5770 5769 5768 5767 5767 5766 5765 5765 5764 5762 5760 5758 5757 5754 5754
5786 5784 5782 5781 5779 5776 5774 5772 5770 5768 5767 5766 5766 5765 5763 5761 5759 5758 5758 5757 5755 5755
5790 5786 5783 5781 5780 5779 5777 5774 5772 5769 5767 5766 5764 5762 5758 5756 5755 5754 5755 5756 5756 5756
5790 5787 5784 5783 5781 5779 5778 5775 5772 5769 5767 5764 5761 5758 5754 5753 5753 5752 5751 5752 5753 5752
5792 5788 5785 5784 5781 5779 5777 5775 5771 5768 5765 5757 5756 5754 5753 5752 5748 5745 5744 5744 5745 5747
5794 5790 5787 5783 5781 5779 5776 5774 5771 5768 5762 5756 5753 5756 5755 5756 5751 5750 5741 5738 5732 5734
5796 5792 5788 5784 5781 5779 5775 5773 5771 5767 5760 5756 5755 5757 5759 5751 5743 5738 5730 5727 5719 5726
5794 5791 5788 5785 5782 5780 5777 5773 5769 5765 5763 5761 5755 5754 5755 5746 5741 5726 5713 5717 5713 5716
5791 5789 5788 5784 5781 5778 5775 5770 5764 5762 5760 5759 5754 5749 5745 5738 5730 5721 5710 5708 5710 5713